Weather in Konyaalti

Turkey     36°53′24″N   30°37′52″E
temp.,
°C
wind,
m/s
gust,
m/s
humid.,
%
clouds,
%
prec.,
mm/h
press.,
hPa
HPBL,
m
17 may, mon
mon1700:00+17n23760 0.0 1009160
03:00+16nnw23760 0.0 100891
06:00+16nnw23734 0.0 100885
09:00+23nnw35386 0.0 1009871
12:00+28sw342860 0.0 10081744
15:00+27sse66372 0.0 1009873
18:00+25se55410 0.0 1010882
21:00+20ese12635 0.0 1011256
18 may, tue
tue1800:00+19nnw226596 0.0 1012108
03:00+18nnw22605 0.0 101140
06:00+18nw11584 0.0 101112
09:00+23sse33470 0.0 1013604
12:00+26sse55400 0.0 10131049
15:00+26s55424 0.0 10121105
18:00+25sse43490 0.0 1012901
21:00+20e117121 0.0 1013230
19 may, wed
wed1900:00+19nnw22755 0.0 1013104
03:00+19nw22640 0.0 101247
06:00+19nw33495 0.0 101245
09:00+27nw352885 0.0 1013680
12:00+29s53325 0.0 10121075
15:00+27sse55443 0.0 1012779
18:00+26sse334831 0.0 1012708
21:00+21ese01652 0.0 1012197
20 may, thu
thu2000:00+20nnw11670 0.0 101241
03:00+19nnw22630 0.0 101028
06:00+19nnw11570 0.0 101018
09:00+26se11360 0.0 1010421
12:00+29sse54270 0.0 10101131
15:00+29sse55320 0.0 10101107
18:00+26se43420 0.0 1010943
21:00+21ne12660 0.0 1011218
21 may, fri
fri2100:00+20nnw22620 0.0 101068
03:00+19nnw11520 0.0 100923
06:00+19nnw11500 0.0 100920
09:00+25se11344 0.0 1009487
12:00+28sse43341 0.0 10081197
15:00+28sse66380 0.0 10081111
18:00+25se55460 0.0 10071041
21:00+21e35685 0.0 1008411